datetime,area
2020-08-02,547.0
2020-08-03,549.0
2020-08-04,555.0
2020-08-05,559.0
2020-08-06,562.0
2020-08-07,562.0
2020-08-08,562.0
2020-08-09,561.0
2020-08-10,561.0
2020-08-11,561.0
2020-08-12,560.0
2020-08-13,560.0
2020-08-14,560.0
2020-08-15,560.0
2020-08-16,559.0
2020-08-17,559.0
2020-08-18,559.0
2020-08-19,559.0
2020-08-20,558.0
2020-08-21,559.0
2020-08-22,559.0
2020-08-23,558.0
2020-08-24,558.0
2020-08-25,557.0
2020-08-26,557.0
2020-08-27,557.0
2020-08-28,557.0
2020-08-29,558.0
2020-08-30,557.0
2020-08-31,557.0
2020-09-01,557.0
2020-09-02,556.0
2020-09-03,556.0
2020-09-04,555.0
2020-09-05,555.0
2020-09-06,554.0
2020-09-07,554.0
2020-09-08,552.0
2020-09-09,552.0
2020-09-10,554.0
2020-09-11,554.0
2020-09-12,554.0
2020-09-13,553.0
2020-09-14,552.0
2020-09-15,550.0
2020-09-16,550.0
2020-09-17,550.0
2020-09-18,550.0
2020-09-19,550.0
2020-09-20,550.0
2020-09-21,550.0
2020-09-22,551.0
2020-09-23,551.0
2020-09-24,551.0
2020-09-25,551.0
2020-09-26,550.0
2020-09-27,550.0
2020-09-28,511.0
2020-09-29,457.0
2020-09-30,405.0
2020-10-01,354.0
2020-10-02,340.0
2020-10-03,340.0
2020-10-04,340.0
2020-10-05,340.0
2020-10-06,340.0
2020-10-07,340.0
2020-10-08,340.0
2020-10-09,340.0
2020-10-10,340.0
2020-10-11,340.0
2020-10-12,339.0
2020-10-13,339.0
2020-10-14,339.0
2020-10-15,339.0
2020-10-16,339.0
2020-10-17,339.0
2020-10-18,338.0
2020-10-19,339.0
2020-10-20,338.0
2020-10-21,339.0
2020-10-22,338.0
2020-10-23,338.0
2020-10-24,338.0
2020-10-25,338.0
2020-10-26,338.0
2020-10-27,339.0
2020-10-28,340.0
2020-10-29,340.0
2020-10-30,340.0
2020-10-31,340.0
2020-11-01,341.0
2020-11-02,341.0
2020-11-03,341.0
2020-11-04,341.0
2020-11-05,341.0
2020-11-06,342.0
2020-11-07,341.0
2020-11-08,342.0
2020-11-09,342.0
2020-11-10,341.0
2020-11-11,341.0
2020-11-12,341.0
2020-11-13,341.0
2020-11-14,342.0
2020-11-15,342.0
2020-11-16,341.0
2020-11-17,341.0
2020-11-18,342.0
2020-11-19,342.0
2020-11-20,342.0
2020-11-21,342.0
2020-11-22,342.0
2020-11-23,343.0
2020-11-24,343.0
2020-11-25,343.0
2020-11-26,343.0
2020-11-27,343.0
2020-11-28,343.0
2020-11-29,343.0
2020-11-30,343.0
2020-12-01,344.0
2020-12-02,343.0
2020-12-03,344.0
2020-12-04,344.0
2020-12-05,344.0
2020-12-06,344.0
2020-12-07,344.0
2020-12-08,344.0
2020-12-09,345.0
2020-12-10,345.0
2020-12-11,345.0
2020-12-12,345.0
2020-12-13,345.0
2020-12-14,346.0
2020-12-15,346.0
2020-12-16,346.0
2020-12-17,346.0
2020-12-18,346.0
2020-12-19,346.0
2020-12-20,346.0
2020-12-21,346.0
2020-12-22,346.0
2020-12-23,346.0
2020-12-24,347.0
2020-12-25,347.0
2020-12-26,346.0
2020-12-27,347.0
2020-12-28,347.0
2020-12-29,347.0
2020-12-30,347.0
2020-12-31,347.0
2021-01-01,347.0
2021-01-02,347.0
2021-01-03,347.0
2021-01-04,347.0
2021-01-05,347.0
2021-01-06,347.0
2021-01-07,347.0
2021-01-08,347.0
2021-01-09,347.0
2021-01-10,347.0
2021-01-11,348.0
2021-01-12,348.0
2021-01-13,348.0
2021-01-14,348.0
2021-01-15,348.0
2021-01-16,349.0
2021-01-17,348.0
2021-01-18,349.0
2021-01-19,349.0
2021-01-20,349.0
2021-01-21,349.0
2021-01-22,349.0
2021-01-23,349.0
2021-01-24,350.0
2021-01-25,350.0
2021-01-26,349.0
2021-01-27,349.0
2021-01-28,349.0
2021-01-29,349.0
2021-01-30,350.0
2021-01-31,350.0
2021-02-01,350.0
2021-02-02,350.0
2021-02-03,350.0
2021-02-04,350.0
2021-02-05,350.0
2021-02-06,350.0
2021-02-07,350.0
2021-02-08,350.0
2021-02-09,350.0
2021-02-10,350.0
2021-02-11,350.0
2021-02-12,350.0
2021-02-13,350.0
2021-02-14,350.0
2021-02-15,350.0
2021-02-16,351.0
2021-02-17,351.0
2021-02-18,351.0
2021-02-19,351.0
2021-02-20,352.0
2021-02-21,352.0
2021-02-22,352.0
2021-02-23,352.0
2021-02-24,352.0
2021-02-25,352.0
2021-02-26,352.0
2021-02-27,352.0
2021-02-28,352.0
2021-03-01,352.0
2021-03-02,352.0
2021-03-03,352.0
2021-03-04,352.0
2021-03-05,352.0
2021-03-06,352.0
2021-03-07,352.0
2021-03-08,352.0
2021-03-09,352.0
2021-03-10,351.0
2021-03-11,351.0
2021-03-12,351.0
2021-03-13,351.0
2021-03-14,351.0
2021-03-15,351.0
2021-03-16,351.0
2021-03-17,351.0
2021-03-18,352.0
2021-03-19,352.0
2021-03-20,352.0
2021-03-21,352.0
2021-03-22,352.0
2021-03-23,353.0
2021-03-24,353.0
2021-03-25,354.0
2021-03-26,353.0
2021-03-27,353.0
2021-03-28,353.0
2021-03-29,353.0
2021-03-30,353.0
2021-03-31,353.0
2021-04-01,353.0
2021-04-02,353.0
2021-04-03,353.0
2021-04-04,353.0
2021-04-05,353.0
2021-04-06,352.0
2021-04-07,352.0
2021-04-08,351.0
2021-04-09,351.0
2021-04-10,351.0
2021-04-11,351.0
2021-04-12,350.0
2021-04-13,350.0
2021-04-14,350.0
2021-04-15,350.0
2021-04-16,349.0
2021-04-17,349.0
2021-04-18,349.0
2021-04-19,349.0
2021-04-20,349.0
2021-04-21,349.0
2021-04-22,348.0
2021-04-23,348.0
2021-04-24,348.0
2021-04-25,348.0
2021-04-26,347.0
2021-04-27,347.0
2021-04-28,347.0
2021-04-29,346.0
2021-04-30,347.0
2021-05-01,347.0
2021-05-02,346.0
2021-05-03,346.0
2021-05-04,346.0
2021-05-05,346.0
2021-05-06,346.0
2021-05-07,345.0
2021-05-08,345.0
2021-05-09,345.0
2021-05-10,345.0
2021-05-11,345.0
2021-05-12,344.0
2021-05-13,344.0
2021-05-14,344.0
2021-05-15,344.0
2021-05-16,343.0
2021-05-17,344.0
2021-05-18,344.0
2021-05-19,343.0
2021-05-20,343.0
2021-05-21,343.0
2021-05-22,342.0
2021-05-23,342.0
2021-05-24,341.0
2021-05-25,341.0
2021-05-26,340.0
2021-05-27,340.0
2021-05-28,340.0
2021-05-29,340.0
2021-05-30,341.0
2021-05-31,341.0
2021-06-01,341.0
2021-06-02,341.0
2021-06-03,341.0
2021-06-04,340.0
2021-06-05,340.0
2021-06-06,340.0
2021-06-07,339.0
2021-06-08,339.0
2021-06-09,338.0
2021-06-10,338.0
2021-06-11,337.0
2021-06-12,337.0
2021-06-13,337.0
2021-06-14,338.0
2021-06-15,338.0
2021-06-16,338.0
2021-06-17,337.0
2021-06-18,337.0
2021-06-19,336.0
2021-06-20,336.0
2021-06-21,335.0
2021-06-22,335.0
2021-06-23,334.0
2021-06-24,334.0
2021-06-25,333.0
2021-06-26,333.0
2021-06-27,333.0
2021-06-28,333.0
2021-06-29,335.0
2021-06-30,337.0
2021-07-01,337.0
2021-07-02,338.0
2021-07-03,341.0
2021-07-04,347.0
2021-07-05,358.0
2021-07-06,386.0
2021-07-07,477.0
2021-07-08,505.0
2021-07-09,521.0
2021-07-10,533.0
2021-07-11,542.0
2021-07-12,552.0
2021-07-13,557.0
2021-07-14,562.0
2021-07-15,566.0
2021-07-16,570.0
2021-07-17,579.0
2021-07-18,583.0
2021-07-19,587.0
2021-07-20,598.0
2021-07-21,608.0
2021-07-22,618.0
2021-07-23,624.0
2021-07-24,629.0
2021-07-25,642.0
2021-07-26,664.0
2021-07-27,683.0
2021-07-28,706.0
2021-07-29,723.0
2021-07-30,737.0
2021-07-31,751.0
2021-08-01,773.0
2021-08-02,796.0
2021-08-03,816.0
2021-08-04,835.0
2021-08-05,859.0
2021-08-06,881.0
2021-08-07,898.0
2021-08-08,912.0
2021-08-09,922.0
2021-08-10,928.0
2021-08-11,929.0
2021-08-12,930.0
2021-08-13,939.0
2021-08-14,946.0
2021-08-15,953.0
2021-08-16,956.0
2021-08-17,956.0
2021-08-18,959.0
2021-08-19,961.0
2021-08-20,960.0
2021-08-21,959.0
2021-08-22,963.0
2021-08-23,1080.0
2021-08-24,1089.0
2021-08-25,1089.0
2021-08-26,1088.0
2021-08-27,1089.0
2021-08-28,1088.0
2021-08-29,1092.0
2021-08-30,1140.0
2021-08-31,1151.0
2021-09-01,1159.0
2021-09-02,1187.0
2021-09-03,1203.0
2021-09-04,1209.0
2021-09-05,1212.0
2021-09-06,1212.0
2021-09-07,1212.0
2021-09-08,1212.0
2021-09-09,1211.0
2021-09-10,1209.0
2021-09-11,1208.0
2021-09-12,1207.0
2021-09-13,1205.0
2021-09-14,1205.0
2021-09-15,1204.0
2021-09-16,1202.0
2021-09-17,1202.0
2021-09-18,1201.0
2021-09-19,1201.0
2021-09-20,1198.0
2021-09-21,1196.0
2021-09-22,1196.0
2021-09-23,1195.0
2021-09-24,1194.0
2021-09-25,1193.0
2021-09-26,1192.0
2021-09-27,1191.0
2021-09-28,1190.0
2021-09-29,1189.0
2021-09-30,1190.0
2021-10-01,1191.0
2021-10-02,1191.0
2021-10-03,1191.0
2021-10-04,1191.0
2021-10-05,1190.0
2021-10-06,1190.0
2021-10-07,1188.0
2021-10-08,1187.0
2021-10-09,1187.0
2021-10-10,1188.0
2021-10-11,1187.0
2021-10-12,1186.0
2021-10-13,1184.0
2021-10-14,1183.0
2021-10-15,1183.0
2021-10-16,1182.0
2021-10-17,1182.0
2021-10-18,1180.0
2021-10-19,1179.0
2021-10-20,1178.0
2021-10-21,1177.0
2021-10-22,1177.0
2021-10-23,1176.0
2021-10-24,1175.0
2021-10-25,1175.0
2021-10-26,1173.0
2021-10-27,1172.0
2021-10-28,1171.0
2021-10-29,1171.0
2021-10-30,1171.0
2021-10-31,1170.0
2021-11-01,1169.0
2021-11-02,1169.0
2021-11-03,1169.0
2021-11-04,1168.0
2021-11-05,1168.0
2021-11-06,1168.0
2021-11-07,1167.0
2021-11-08,1167.0
2021-11-09,1167.0
2021-11-10,1165.0
2021-11-11,1165.0
2021-11-12,1165.0
2021-11-13,1164.0
2021-11-14,1163.0
2021-11-15,1163.0
2021-11-16,1162.0
2021-11-17,1161.0
2021-11-18,1161.0
2021-11-19,1160.0
2021-11-20,1159.0
2021-11-21,1159.0
2021-11-22,1159.0
2021-11-23,1158.0
2021-11-24,1158.0
2021-11-25,1157.0
2021-11-26,1157.0
2021-11-27,1156.0
2021-11-28,1156.0
2021-11-29,1156.0
2021-11-30,1156.0
2021-12-01,1156.0
2021-12-02,1155.0
2021-12-03,1155.0
2021-12-04,1155.0
2021-12-05,1154.0
2021-12-06,1153.0
2021-12-07,1153.0
2021-12-08,1152.0
2021-12-09,1150.0
2021-12-10,1150.0
2021-12-11,1150.0
2021-12-12,1149.0
2021-12-13,1149.0
2021-12-14,1148.0
2021-12-15,1147.0
2021-12-16,1144.0
2021-12-17,1144.0
2021-12-18,1144.0
2021-12-19,1143.0
2021-12-20,1143.0
2021-12-21,1143.0
2021-12-22,1142.0
2021-12-23,1141.0
2021-12-24,1140.0
2021-12-25,1140.0
2021-12-26,1140.0
2021-12-27,1140.0
2021-12-28,1139.0
2021-12-29,1140.0
2021-12-30,1139.0
2021-12-31,1139.0
2022-01-01,1140.0
2022-01-02,1140.0
2022-01-03,1138.0
2022-01-04,1139.0
2022-01-05,1138.0
2022-01-06,1139.0
2022-01-07,1139.0
2022-01-08,1138.0
2022-01-09,1138.0
2022-01-10,1137.0
2022-01-11,1137.0
2022-01-12,1136.0
2022-01-13,1136.0
2022-01-14,1137.0
2022-01-15,1136.0
2022-01-16,1136.0
2022-01-17,1135.0
2022-01-18,1134.0
2022-01-19,1134.0
2022-01-20,1134.0
2022-01-21,1134.0
2022-01-22,1133.0
2022-01-23,1133.0
2022-01-24,1131.0
2022-01-25,1130.0
2022-01-26,1132.0
2022-01-27,1133.0
2022-01-28,1134.0
2022-01-29,1134.0
2022-01-30,1135.0
2022-01-31,1134.0
2022-02-01,1132.0
2022-02-02,1133.0
2022-02-03,1133.0
2022-02-04,1133.0
2022-02-05,1133.0
2022-02-06,1132.0
2022-02-07,1132.0
2022-02-08,1131.0
2022-02-09,1131.0
2022-02-10,1132.0
2022-02-11,1132.0
2022-02-12,1132.0
2022-02-13,1132.0
2022-02-14,1132.0
2022-02-15,1132.0
2022-02-16,1131.0
2022-02-17,1131.0
2022-02-18,1130.0
2022-02-19,1130.0
2022-02-20,1129.0
2022-02-21,1129.0
2022-02-22,1128.0
2022-02-23,1128.0
2022-02-24,1126.0
2022-02-25,1126.0
2022-02-26,1126.0
2022-02-27,1126.0
2022-02-28,1126.0
2022-03-01,1126.0
2022-03-02,1125.0
2022-03-03,1125.0
2022-03-04,1123.0
2022-03-05,1122.0
2022-03-06,1122.0
2022-03-07,1121.0
2022-03-08,1121.0
2022-03-09,1120.0
2022-03-10,1121.0
2022-03-11,1120.0
2022-03-12,1120.0
2022-03-13,1120.0
2022-03-14,1119.0
2022-03-15,1119.0
2022-03-16,1119.0
2022-03-17,1119.0
2022-03-18,1118.0
2022-03-19,1118.0
2022-03-20,1119.0
2022-03-21,1118.0
2022-03-22,1117.0
2022-03-23,1118.0
2022-03-24,1117.0
2022-03-25,1116.0
2022-03-26,1116.0
2022-03-27,1115.0
2022-03-28,1114.0
2022-03-29,1113.0
2022-03-30,1114.0
2022-03-31,1114.0
2022-04-01,1113.0
2022-04-02,1113.0
2022-04-03,1112.0
2022-04-04,1111.0
2022-04-05,1110.0
2022-04-06,1108.0
2022-04-07,1109.0
2022-04-08,1108.0
2022-04-09,1106.0
2022-04-10,1105.0
2022-04-11,1104.0
2022-04-12,1102.0
2022-04-13,1100.0
2022-04-14,1099.0
2022-04-15,1099.0
2022-04-16,1098.0
2022-04-17,1098.0
2022-04-18,1097.0
2022-04-19,1098.0
2022-04-20,1097.0
2022-04-21,1095.0
2022-04-22,1094.0
2022-04-23,1093.0
2022-04-24,1093.0
2022-04-25,1097.0
2022-04-26,1100.0
2022-04-27,1102.0
2022-04-28,1103.0
2022-04-29,1102.0
2022-04-30,1104.0
2022-05-01,1105.0
2022-05-02,1105.0
2022-05-03,1105.0
2022-05-04,1105.0
2022-05-05,1104.0
2022-05-06,1103.0
2022-05-07,1102.0
2022-05-08,1101.0
2022-05-09,1099.0
2022-05-10,1098.0
2022-05-11,1097.0
2022-05-12,1097.0
2022-05-13,1096.0
2022-05-14,1095.0
2022-05-15,1094.0
2022-05-16,1094.0
2022-05-17,1093.0
2022-05-18,1091.0
2022-05-19,1089.0
2022-05-20,1088.0
2022-05-21,1087.0
2022-05-22,1085.0
2022-05-23,1084.0
2022-05-24,1086.0
2022-05-25,1085.0
2022-05-26,1085.0
2022-05-27,1083.0
2022-05-28,1082.0
2022-05-29,1079.0
2022-05-30,1078.0
2022-05-31,1076.0
2022-06-01,1074.0
2022-06-02,1073.0
2022-06-03,1073.0
2022-06-04,1072.0
2022-06-05,1071.0
2022-06-06,1070.0
2022-06-07,1069.0
2022-06-08,1068.0
2022-06-09,1068.0
2022-06-10,1068.0
2022-06-11,1067.0
2022-06-12,1066.0
2022-06-13,1062.0
2022-06-14,1061.0
2022-06-15,1059.0
2022-06-16,1057.0
2022-06-17,1057.0
2022-06-18,1055.0
2022-06-19,1055.0
2022-06-20,1054.0
2022-06-21,1056.0
2022-06-22,979.0
2022-06-23,820.0
2022-06-24,671.0
2022-06-25,536.0
2022-06-26,444.0
2022-06-27,360.0
2022-06-28,304.0
2022-06-29,291.0
2022-06-30,310.0
2022-07-01,331.0
2022-07-02,347.0
2022-07-03,370.0
2022-07-04,408.0
2022-07-05,446.0
2022-07-06,474.0
2022-07-07,497.0
2022-07-08,513.0
2022-07-09,525.0
2022-07-10,533.0
2022-07-11,543.0
2022-07-12,556.0
2022-07-13,570.0
2022-07-14,588.0
2022-07-15,611.0
2022-07-16,624.0
2022-07-17,633.0
2022-07-18,641.0
2022-07-19,645.0
2022-07-20,648.0
2022-07-21,649.0
2022-07-22,651.0
2022-07-23,653.0
2022-07-24,660.0
2022-07-25,668.0
2022-07-26,674.0
2022-07-27,681.0
2022-07-28,718.0
2022-07-29,760.0
2022-07-30,831.0
2022-07-31,906.0
2022-08-01,980.0
2022-08-02,1069.0
2022-08-03,1112.0
2022-08-04,1154.0
2022-08-05,1208.0
2022-08-06,1242.0
2022-08-07,1271.0
2022-08-08,1308.0
2022-08-09,1337.0
2022-08-10,1394.0
2022-08-11,1357.0
2022-08-12,1276.0
2022-08-13,1178.0
2022-08-14,1067.0
2022-08-15,927.0
2022-08-16,792.0
2022-08-17,645.0
2022-08-18,514.0
2022-08-19,448.0
2022-08-20,398.0
2022-08-21,379.0
2022-08-22,410.0
2022-08-23,441.0
2022-08-24,474.0
2022-08-25,508.0
2022-08-26,540.0
2022-08-27,572.0
2022-08-28,604.0
2022-08-29,629.0
2022-08-30,653.0
2022-08-31,675.0
2022-09-01,693.0
2022-09-02,710.0
2022-09-03,721.0
2022-09-04,730.0
2022-09-05,740.0
2022-09-06,748.0
2022-09-07,751.0
2022-09-08,753.0
2022-09-09,755.0
2022-09-10,755.0
2022-09-11,756.0
2022-09-12,771.0
2022-09-13,779.0
2022-09-14,786.0
2022-09-15,791.0
2022-09-16,794.0
2022-09-17,796.0
2022-09-18,798.0
2022-09-19,799.0
2022-09-20,799.0
2022-09-21,800.0
2022-09-22,798.0
2022-09-23,798.0
2022-09-24,798.0
2022-09-25,798.0
2022-09-26,798.0
2022-09-27,798.0
2022-09-28,797.0
2022-09-29,796.0
2022-09-30,796.0
2022-10-01,796.0
2022-10-02,795.0
2022-10-03,795.0
2022-10-04,795.0
2022-10-05,795.0
2022-10-06,812.0
2022-10-07,820.0
2022-10-08,828.0
2022-10-09,842.0
2022-10-10,852.0
2022-10-11,866.0
2022-10-12,879.0
2022-10-13,891.0
2022-10-14,902.0
2022-10-15,913.0
2022-10-16,926.0
2022-10-17,937.0
2022-10-18,952.0
2022-10-19,964.0
2022-10-20,975.0
2022-10-21,984.0
2022-10-22,992.0
2022-10-23,998.0
2022-10-24,1004.0
2022-10-25,1012.0
2022-10-26,1017.0
2022-10-27,1023.0
2022-10-28,1029.0
2022-10-29,1033.0
2022-10-30,1037.0
2022-10-31,1040.0
2022-11-01,1042.0
2022-11-02,1044.0
2022-11-03,1045.0
2022-11-04,1046.0
2022-11-05,1047.0
2022-11-06,1050.0
2022-11-07,1052.0
2022-11-08,1055.0
2022-11-09,1056.0
2022-11-10,1056.0
2022-11-11,1057.0
2022-11-12,1057.0
2022-11-13,1059.0
2022-11-14,1060.0
2022-11-15,1060.0
2022-11-16,1061.0
2022-11-17,1063.0
2022-11-18,1063.0
2022-11-19,1063.0
2022-11-20,1063.0
2022-11-21,1063.0
2022-11-22,1063.0
2022-11-23,1064.0
2022-11-24,1063.0
2022-11-25,1065.0
2022-11-26,1064.0
2022-11-27,1064.0
2022-11-28,1064.0
2022-11-29,1063.0
2022-11-30,1062.0
2022-12-01,1063.0
2022-12-02,1063.0
2022-12-03,1064.0
2022-12-04,1063.0
2022-12-05,1064.0
2022-12-06,1063.0
2022-12-07,1062.0
2022-12-08,1062.0
2022-12-09,1062.0
2022-12-10,1062.0
2022-12-11,1062.0
2022-12-12,1062.0
2022-12-13,1061.0
2022-12-14,1062.0
2022-12-15,1061.0
2022-12-16,1062.0
2022-12-17,1061.0
2022-12-18,1060.0
2022-12-19,1062.0
2022-12-20,1061.0
2022-12-21,1061.0
2022-12-22,1060.0
2022-12-23,1061.0
2022-12-24,1061.0
2022-12-25,1062.0
2022-12-26,1062.0
2022-12-27,1061.0
2022-12-28,1062.0
2022-12-29,1062.0
2022-12-30,1060.0
2022-12-31,1061.0
2023-01-01,1061.0
2023-01-02,1061.0
2023-01-03,1061.0
2023-01-04,1061.0
2023-01-05,1061.0
2023-01-06,1060.0
2023-01-07,1060.0
2023-01-08,1061.0
2023-01-09,1060.0
2023-01-10,1061.0
2023-01-11,1060.0
2023-01-12,1060.0
2023-01-13,1059.0
2023-01-14,1060.0
2023-01-15,1058.0
2023-01-16,1060.0
2023-01-17,1059.0
2023-01-18,1057.0
2023-01-19,1058.0
2023-01-20,1059.0
2023-01-21,1059.0
2023-01-22,1059.0
2023-01-23,1058.0
2023-01-24,1058.0
2023-01-25,1057.0
2023-01-26,1058.0
2023-01-27,1059.0
2023-01-28,1058.0
2023-01-29,1058.0
2023-01-30,1059.0
2023-01-31,1058.0
2023-02-01,1059.0
2023-02-02,1059.0
2023-02-03,1058.0
2023-02-04,1058.0
2023-02-05,1058.0
2023-02-06,1059.0
2023-02-07,1058.0
2023-02-08,1058.0
2023-02-09,1060.0
2023-02-10,1059.0
2023-02-11,1059.0
2023-02-12,1059.0
2023-02-13,1059.0
2023-02-14,1059.0
2023-02-15,1059.0
2023-02-16,1059.0
2023-02-17,1058.0
2023-02-18,1058.0
2023-02-19,1058.0
2023-02-20,1057.0
2023-02-21,1058.0
2023-02-22,1057.0
2023-02-23,1058.0
2023-02-24,1057.0
2023-02-25,1057.0
2023-02-26,1056.0
2023-02-27,1056.0
2023-02-28,1056.0
2023-03-01,1056.0
2023-03-02,1056.0
2023-03-03,1055.0
2023-03-04,1055.0
2023-03-05,1055.0
2023-03-06,1054.0
2023-03-07,1054.0
2023-03-08,1054.0
2023-03-09,1054.0
2023-03-10,1054.0
2023-03-11,1053.0
2023-03-12,1053.0
2023-03-13,1053.0
2023-03-14,1057.0
2023-03-15,1057.0
2023-03-16,1062.0
2023-03-17,1069.0
2023-03-18,1082.0
2023-03-19,1093.0
2023-03-20,1103.0
2023-03-21,1108.0
2023-03-22,1115.0
2023-03-23,1123.0
2023-03-24,1137.0
2023-03-25,1150.0
2023-03-26,1163.0
2023-03-27,1171.0
2023-03-28,1181.0
2023-03-29,1190.0
2023-03-30,1193.0
2023-03-31,1196.0
2023-04-01,1204.0
2023-04-02,1212.0
2023-04-03,1218.0
2023-04-04,1225.0
2023-04-05,1238.0
2023-04-06,1253.0
2023-04-07,1265.0
2023-04-08,1275.0
2023-04-09,1284.0
2023-04-10,1295.0
2023-04-11,1309.0
2023-04-12,1332.0
2023-04-13,1376.0
2023-04-14,1473.0
2023-04-15,1559.0
2023-04-16,1616.0
2023-04-17,1659.0
2023-04-18,1697.0
2023-04-19,1743.0
2023-04-20,1798.0
2023-04-21,1846.0
2023-04-22,1885.0
2023-04-23,1918.0
2023-04-24,1948.0
2023-04-25,1977.0
2023-04-26,2003.0
2023-04-27,2031.0
2023-04-28,2055.0
2023-04-29,2079.0
2023-04-30,2101.0
2023-05-01,2124.0
2023-05-02,2152.0
2023-05-03,2184.0
2023-05-04,2219.0
2023-05-05,2259.0
2023-05-06,2298.0
2023-05-07,2330.0
2023-05-08,2360.0
2023-05-09,2386.0
2023-05-10,2413.0
2023-05-11,2439.0
2023-05-12,2468.0
2023-05-13,2492.0
2023-05-14,2515.0
2023-05-15,2537.0
2023-05-16,2559.0
2023-05-17,2580.0
2023-05-18,2604.0
2023-05-19,2636.0
2023-05-20,2669.0
2023-05-21,2699.0
2023-05-22,2728.0
2023-05-23,2753.0
2023-05-24,2778.0
2023-05-25,2799.0
2023-05-26,2820.0
2023-05-27,2838.0
2023-05-28,2858.0
2023-05-29,2877.0
2023-05-30,2893.0
2023-05-31,2935.0
2023-06-01,2979.0
2023-06-02,3006.0
2023-06-03,3025.0
2023-06-04,3047.0
2023-06-05,3061.0
2023-06-06,3080.0
2023-06-07,3172.0
2023-06-08,3211.0
2023-06-09,3232.0
2023-06-10,3247.0
2023-06-11,3259.0
2023-06-12,3269.0
2023-06-13,3277.0
2023-06-14,3284.0
2023-06-15,3288.0
2023-06-16,3294.0
2023-06-17,3298.0
2023-06-18,3302.0
2023-06-19,3304.0
2023-06-20,3303.0
2023-06-21,3260.0
2023-06-22,3184.0
2023-06-23,3103.0
2023-06-24,3019.0
2023-06-25,2936.0
2023-06-26,2857.0
2023-06-27,2780.0
2023-06-28,2701.0
2023-06-29,2673.0
2023-06-30,2669.0
2023-07-01,2665.0
2023-07-02,2666.0
2023-07-03,2668.0
2023-07-04,2667.0
2023-07-05,2666.0
2023-07-06,2662.0
2023-07-07,2658.0
2023-07-08,2658.0
2023-07-09,2658.0
2023-07-10,2655.0
2023-07-11,2655.0
2023-07-12,2653.0
2023-07-13,2653.0
2023-07-14,2652.0
2023-07-15,2650.0
2023-07-16,2649.0
2023-07-17,2646.0
2023-07-18,2644.0
2023-07-19,2643.0
2023-07-20,2641.0
2023-07-21,2640.0
2023-07-22,2652.0
2023-07-23,2665.0
2023-07-24,2664.0
2023-07-25,2663.0
2023-07-26,2661.0
2023-07-27,2659.0
2023-07-28,2657.0
2023-07-29,2655.0
2023-07-30,2653.0
2023-07-31,2650.0
2023-08-01,2650.0
2023-08-02,2649.0
2023-08-03,2648.0
2023-08-04,2644.0
2023-08-05,2643.0
2023-08-06,2641.0
2023-08-07,2639.0
2023-08-08,2636.0
2023-08-09,2634.0
2023-08-10,2632.0
2023-08-11,2626.0
2023-08-12,2626.0
2023-08-13,2624.0
2023-08-14,2570.0
2023-08-15,2479.0
2023-08-16,2390.0
2023-08-17,2303.0
2023-08-18,2187.0
2023-08-19,2077.0
2023-08-20,1970.0
2023-08-21,1854.0
2023-08-22,1721.0
2023-08-23,1582.0
2023-08-24,1383.0
2023-08-25,1255.0
2023-08-26,1122.0
2023-08-27,991.0
2023-08-28,865.0
2023-08-29,844.0
2023-08-30,861.0
2023-08-31,867.0
2023-09-01,868.0
2023-09-02,868.0
2023-09-03,869.0
2023-09-04,867.0
2023-09-05,867.0
2023-09-06,867.0
2023-09-07,866.0
2023-09-08,866.0
2023-09-09,872.0
2023-09-10,886.0
2023-09-11,884.0
2023-09-12,884.0
2023-09-13,887.0
2023-09-14,892.0
2023-09-15,892.0
2023-09-16,892.0
2023-09-17,893.0
2023-09-18,893.0
2023-09-19,892.0
2023-09-20,892.0
2023-09-21,893.0
2023-09-22,892.0
2023-09-23,891.0
2023-09-24,891.0
2023-09-25,891.0
2023-09-26,890.0
2023-09-27,890.0
2023-09-28,889.0
2023-09-29,890.0
2023-09-30,888.0
2023-10-01,888.0
2023-10-02,890.0
2023-10-03,899.0
2023-10-04,913.0
2023-10-05,917.0
2023-10-06,918.0
2023-10-07,918.0
2023-10-08,918.0
2023-10-09,918.0
2023-10-10,915.0
2023-10-11,915.0
2023-10-12,915.0
2023-10-13,915.0
2023-10-14,913.0
2023-10-15,914.0
2023-10-16,913.0
2023-10-17,913.0
2023-10-18,911.0
2023-10-19,913.0
2023-10-20,913.0
2023-10-21,913.0
2023-10-22,913.0
2023-10-23,911.0
2023-10-24,910.0
2023-10-25,910.0
2023-10-26,909.0
2023-10-27,909.0
2023-10-28,908.0
2023-10-29,907.0
2023-10-30,907.0
2023-10-31,905.0
2023-11-01,905.0
2023-11-02,904.0
2023-11-03,904.0
2023-11-04,904.0
2023-11-05,904.0
2023-11-06,903.0
2023-11-07,904.0
2023-11-08,903.0
2023-11-09,903.0
2023-11-10,902.0
2023-11-11,903.0
2023-11-12,903.0
2023-11-13,902.0
2023-11-14,903.0
2023-11-15,903.0
2023-11-16,904.0
2023-11-17,904.0
2023-11-18,904.0
2023-11-19,904.0
2023-11-20,905.0
2023-11-21,904.0
2023-11-22,904.0
2023-11-23,904.0
2023-11-24,903.0
2023-11-25,905.0
2023-11-26,904.0
2023-11-27,904.0
2023-11-28,904.0
2023-11-29,905.0
2023-11-30,905.0
2023-12-01,906.0
2023-12-02,905.0
2023-12-03,907.0
2023-12-04,907.0
2023-12-05,905.0
2023-12-06,907.0
2023-12-07,906.0
2023-12-08,905.0
2023-12-09,905.0
2023-12-10,906.0
2023-12-11,905.0
2023-12-12,905.0
2023-12-13,909.0
2023-12-14,911.0
2023-12-15,913.0
2023-12-16,913.0
2023-12-17,913.0
2023-12-18,912.0
2023-12-19,913.0
2023-12-20,913.0
2023-12-21,915.0
2023-12-22,915.0
2023-12-23,921.0
2023-12-24,919.0
2023-12-25,919.0
2023-12-26,919.0
2023-12-27,920.0
2023-12-28,919.0
2023-12-29,920.0
2023-12-30,921.0
2023-12-31,921.0
2024-01-01,920.0
2024-01-02,919.0
2024-01-03,921.0
2024-01-04,922.0
2024-01-05,922.0
2024-01-06,923.0
2024-01-07,925.0
2024-01-08,925.0
2024-01-09,924.0
2024-01-10,926.0
2024-01-11,926.0
2024-01-12,925.0
2024-01-13,926.0
2024-01-14,925.0
2024-01-15,927.0
2024-01-16,927.0
2024-01-17,928.0
2024-01-18,927.0
2024-01-19,927.0
2024-01-20,927.0
2024-01-21,927.0
2024-01-22,927.0
2024-01-23,927.0
2024-01-24,927.0
2024-01-25,929.0
2024-01-26,927.0
2024-01-27,927.0
2024-01-28,928.0
2024-01-29,927.0
2024-01-30,929.0
2024-01-31,930.0
2024-02-01,930.0
2024-02-02,930.0
2024-02-03,929.0
2024-02-04,929.0
2024-02-05,930.0
2024-02-06,929.0
2024-02-07,929.0
2024-02-08,929.0
2024-02-09,930.0
2024-02-10,932.0
2024-02-11,933.0
2024-02-12,931.0
2024-02-13,931.0
2024-02-14,931.0
2024-02-15,930.0
2024-02-16,931.0
2024-02-17,931.0
2024-02-18,931.0
2024-02-19,932.0
2024-02-20,931.0
2024-02-21,931.0
2024-02-22,931.0
2024-02-23,930.0
2024-02-24,929.0
2024-02-25,928.0
2024-02-26,929.0
2024-02-27,929.0
2024-02-28,928.0
2024-02-29,928.0
2024-03-01,928.0
2024-03-02,927.0
2024-03-03,927.0
2024-03-04,925.0
2024-03-05,924.0
2024-03-06,924.0
2024-03-07,923.0
2024-03-08,921.0
2024-03-09,921.0
2024-03-10,921.0
2024-03-11,921.0
2024-03-12,921.0
2024-03-13,920.0
2024-03-14,920.0
2024-03-15,920.0
2024-03-16,921.0
2024-03-17,921.0
2024-03-18,921.0
2024-03-19,921.0
2024-03-20,921.0
2024-03-21,920.0
2024-03-22,920.0
2024-03-23,921.0
2024-03-24,918.0
2024-03-25,920.0
2024-03-26,918.0
2024-03-27,917.0
